,,,PA_Meas_PMT16A,,PR_Meas_QMR101_102,,RH_Meas_QMH101,,SR_Meas_QMS101,,TA_Meas_QMH101,,GenWind,,GenWind,
date,time,status,PA,status,PR,status,RH,status,SR,status,TA,status,DirAvg,status,SpdAvg,
2011-04-30, 00:00:04,VALID,999.657,VALID,0,VALID,92.6312,VALID,0,VALID,23.5451,VALID,347,VALID,0.580078,
2011-04-30, 00:01:04,VALID,999.636,VALID,0,VALID,92.6465,VALID,0,VALID,23.5451,VALID,347,VALID,0.630859,
2011-04-30, 00:02:04,VALID,999.614,VALID,0,VALID,92.6541,VALID,0,VALID,23.5841,VALID,347,VALID,0.596094,
2011-04-30, 00:03:04,VALID,999.655,VALID,0,VALID,92.616,VALID,0,VALID,23.5646,VALID,71,VALID,0.800781,
2011-04-30, 00:04:04,VALID,999.619,VALID,0,VALID,92.616,VALID,0,VALID,23.5646,VALID,72,VALID,0.851563,
2011-04-30, 00:05:04,VALID,999.614,VALID,0,VALID,92.6007,VALID,0,VALID,23.5841,VALID,74,VALID,0.767969,
2011-04-30, 00:06:04,VALID,999.617,VALID,0,VALID,92.5549,VALID,0,VALID,23.5646,VALID,75,VALID,0.676562,
2011-04-30, 00:07:04,VALID,999.604,VALID,0,VALID,92.5702,VALID,0,VALID,23.5646,VALID,87,VALID,0.685156,
2011-04-30, 00:08:04,VALID,999.618,VALID,0,VALID,92.5778,VALID,0,VALID,23.5646,VALID,87,VALID,0.528516,
2011-04-30, 00:09:04,VALID,999.578,VALID,0,VALID,92.5702,VALID,0,VALID,23.5646,VALID,87,VALID,0.422266,
2011-04-30, 00:10:04,VALID,999.552,VALID,0,VALID,92.5931,VALID,0,VALID,23.5646,VALID,87,VALID,0.626172,
2011-04-30, 00:11:04,VALID,999.532,VALID,0,VALID,92.6388,VALID,0,VALID,23.5646,VALID,87,VALID,0.437891,
2011-04-30, 00:12:04,VALID,999.522,VALID,0,VALID,92.6312,VALID,0,VALID,23.5841,VALID,87,VALID,0.513281,
2011-04-30, 00:13:04,VALID,999.51,VALID,0,VALID,92.6694,VALID,0,VALID,23.5841,VALID,87,VALID,0.448438,
2011-04-30, 00:14:04,VALID,999.478,VALID,0,VALID,92.6923,VALID,0,VALID,23.6054,VALID,87,VALID,0.513672,
2011-04-30, 00:15:04,VALID,999.469,VALID,0,VALID,92.6999,VALID,0,VALID,23.5646,VALID,87,VALID,0.503906,
2011-04-30, 00:16:04,VALID,999.454,VALID,0,VALID,92.6923,VALID,0,VALID,23.5451,VALID,87,VALID,0.363281,
2011-04-30, 00:17:04,VALID,999.414,VALID,0,VALID,92.6999,VALID,0,VALID,23.5256,VALID,87,VALID,0.244922,
2011-04-30, 00:18:04,VALID,999.411,VALID,0,VALID,92.6999,VALID,0,VALID,23.5061,VALID,87,VALID,0.291797,
2011-04-30, 00:19:04,VALID,999.404,VALID,0,VALID,92.6999,VALID,0,VALID,23.5061,VALID,87,VALID,0.396094,
2011-04-30, 00:20:04,VALID,999.381,VALID,0,VALID,92.7151,VALID,0,VALID,23.5061,VALID,87,VALID,0.364453,
2011-04-30, 00:21:04,VALID,999.38,VALID,0,VALID,92.7228,VALID,0,VALID,23.5061,VALID,87,VALID,0.289844,
2011-04-30, 00:22:04,VALID,999.393,VALID,0,VALID,92.7151,VALID,0,VALID,23.4848,VALID,87,VALID,0.272656,
2011-04-30, 00:23:04,VALID,999.363,VALID,0,VALID,92.7151,VALID,0,VALID,23.4866,VALID,87,VALID,0.325391,
2011-04-30, 00:24:04,VALID,999.331,VALID,0,VALID,92.7228,VALID,0,VALID,23.5079,VALID,87,VALID,0,
2011-04-30, 00:25:04,VALID,999.324,VALID,0,VALID,92.738,VALID,0,VALID,23.5061,VALID,87,VALID,0,
2011-04-30, 00:26:04,VALID,999.312,VALID,0,VALID,92.7304,VALID,0,VALID,23.5061,VALID,87,VALID,0,
2011-04-30, 00:27:04,VALID,999.286,VALID,0,VALID,92.7533,VALID,0,VALID,23.5061,VALID,87,VALID,0.164844,
2011-04-30, 00:28:04,VALID,999.285,VALID,0,VALID,92.7533,VALID,0,VALID,23.4866,VALID,87,VALID,0.45625,
2011-04-30, 00:29:04,VALID,999.31,VALID,0,VALID,92.7609,VALID,0,VALID,23.4866,VALID,87,VALID,0.458984,
2011-04-30, 00:30:04,VALID,999.283,VALID,0,VALID,92.7609,VALID,0,VALID,23.4866,VALID,87,VALID,0.421094,
2011-04-30, 00:31:04,VALID,999.306,VALID,0,VALID,92.7609,VALID,0,VALID,23.4866,VALID,87,VALID,0.136328,
2011-04-30, 00:32:04,VALID,999.278,VALID,0,VALID,92.7762,VALID,0,VALID,23.4866,VALID,87,VALID,0,
2011-04-30, 00:33:04,VALID,999.292,VALID,0,VALID,92.7685,VALID,0,VALID,23.4866,VALID,87,VALID,0.374609,
2011-04-30, 00:34:04,VALID,999.237,VALID,0,VALID,92.7991,VALID,0,VALID,23.4671,VALID,351,VALID,0.5625,
2011-04-30, 00:35:04,VALID,999.255,VALID,0,VALID,92.8372,VALID,0,VALID,23.4848,VALID,351,VALID,0.575,
2011-04-30, 00:36:04,VALID,999.21,VALID,0,VALID,92.8296,VALID,0,VALID,23.5061,VALID,351,VALID,0.725,
2011-04-30, 00:37:04,VALID,999.209,VALID,0,VALID,92.8525,VALID,0,VALID,23.5256,VALID,351,VALID,0.628516,
2011-04-30, 00:38:04,VALID,999.181,VALID,0,VALID,92.8448,VALID,0,VALID,23.5256,VALID,351,VALID,0.633984,
2011-04-30, 00:39:04,VALID,999.151,VALID,0,VALID,92.8983,VALID,0,VALID,23.5256,VALID,351,VALID,0.737109,
2011-04-30, 00:40:04,VALID,999.182,VALID,0,VALID,92.9211,VALID,0,VALID,23.5451,VALID,351,VALID,0.383594,
2011-04-30, 00:41:04,VALID,999.145,VALID,0,VALID,92.9517,VALID,0,VALID,23.5451,VALID,356,VALID,0.282813,
2011-04-30, 00:42:04,VALID,999.16,VALID,0,VALID,92.9364,VALID,0,VALID,23.5451,VALID,356,VALID,0,
2011-04-30, 00:43:04,VALID,999.158,VALID,0,VALID,92.944,VALID,0,VALID,23.5256,VALID,356,VALID,0,
2011-04-30, 00:44:04,VALID,999.17,VALID,0,VALID,92.944,VALID,0,VALID,23.5256,VALID,356,VALID,0,
2011-04-30, 00:45:04,VALID,999.151,VALID,0,VALID,92.9364,VALID,0,VALID,23.5043,VALID,356,VALID,0,
2011-04-30, 00:46:04,VALID,999.167,VALID,0,VALID,92.944,VALID,0,VALID,23.5043,VALID,356,VALID,0,
2011-04-30, 00:47:04,VALID,999.165,VALID,0,VALID,92.9593,VALID,0,VALID,23.4848,VALID,356,VALID,0,
2011-04-30, 00:48:04,VALID,999.138,VALID,0,VALID,92.9593,VALID,0,VALID,23.5061,VALID,356,VALID,0,
2011-04-30, 00:49:04,VALID,999.084,VALID,0,VALID,92.944,VALID,0,VALID,23.4866,VALID,356,VALID,0.360547,
2011-04-30, 00:50:04,VALID,999.053,VALID,0,VALID,92.9593,VALID,0,VALID,23.4866,VALID,356,VALID,0,
2011-04-30, 00:51:04,VALID,999.056,VALID,0,VALID,92.9898,VALID,0,VALID,23.4866,VALID,356,VALID,0,
2011-04-30, 00:52:04,VALID,999.013,VALID,0,VALID,92.944,VALID,0,VALID,23.4866,VALID,356,VALID,0,
2011-04-30, 00:53:04,VALID,999.036,VALID,0,VALID,92.9593,VALID,0,VALID,23.4866,VALID,356,VALID,0,
2011-04-30, 00:54:04,VALID,999.054,VALID,0,VALID,92.944,VALID,0,VALID,23.4653,VALID,356,VALID,0,
2011-04-30, 00:55:04,VALID,999.029,VALID,0,VALID,92.9669,VALID,0,VALID,23.4653,VALID,356,VALID,0,
2011-04-30, 00:56:04,VALID,999.01,VALID,0,VALID,92.9669,VALID,0,VALID,23.5061,VALID,277,VALID,0,
2011-04-30, 00:57:04,VALID,998.994,VALID,0,VALID,92.9593,VALID,0,VALID,23.5256,VALID,253,VALID,0,
2011-04-30, 00:58:04,VALID,999.015,VALID,0,VALID,92.944,VALID,0,VALID,23.5646,VALID,253,VALID,0,
2011-04-30, 00:59:04,VALID,998.996,VALID,0,VALID,92.9517,VALID,0,VALID,23.5841,VALID,253,VALID,0,
2011-04-30, 01:00:04,VALID,998.987,VALID,0,VALID,92.9593,VALID,0,VALID,23.5841,VALID,253,VALID,0,
2011-04-30, 01:01:04,VALID,999.012,VALID,0,VALID,92.9364,VALID,0,VALID,23.6054,VALID,253,VALID,0,
2011-04-30, 01:02:04,VALID,999.009,VALID,0,VALID,92.9059,VALID,0,VALID,23.5841,VALID,229,VALID,0.407422,
2011-04-30, 01:03:04,VALID,998.983,VALID,0,VALID,92.9288,VALID,0,VALID,23.5841,VALID,228,VALID,0.225391,
2011-04-30, 01:04:04,VALID,998.949,VALID,0,VALID,92.9135,VALID,0,VALID,23.5823,VALID,228,VALID,0.00351562,
2011-04-30, 01:05:04,VALID,998.928,VALID,0,VALID,92.8601,VALID,0,VALID,23.5646,VALID,228,VALID,0.272656,
2011-04-30, 01:06:04,VALID,998.888,VALID,0,VALID,92.8372,VALID,0,VALID,23.5664,VALID,228,VALID,0.108203,
2011-04-30, 01:07:04,VALID,998.861,VALID,0,VALID,92.8296,VALID,0,VALID,23.5256,VALID,228,VALID,0,
2011-04-30, 01:08:04,VALID,998.83,VALID,0,VALID,92.7914,VALID,0,VALID,23.4866,VALID,228,VALID,0,
2011-04-30, 01:09:04,VALID,998.799,VALID,0,VALID,92.7991,VALID,0,VALID,23.4866,VALID,228,VALID,0,
2011-04-30, 01:10:04,VALID,998.758,VALID,0,VALID,92.7914,VALID,0,VALID,23.4671,VALID,228,VALID,0,
2011-04-30, 01:11:04,VALID,998.755,VALID,0,VALID,92.8067,VALID,0,VALID,23.4866,VALID,228,VALID,0,
2011-04-30, 01:12:04,VALID,998.72,VALID,0,VALID,92.8143,VALID,0,VALID,23.5061,VALID,228,VALID,0,
2011-04-30, 01:13:04,VALID,998.761,VALID,0,VALID,92.822,VALID,0,VALID,23.5274,VALID,228,VALID,0.239063,
2011-04-30, 01:14:04,VALID,998.681,VALID,0,VALID,92.8372,VALID,0,VALID,23.5451,VALID,228,VALID,0.353125,
2011-04-30, 01:15:04,VALID,998.715,VALID,0,VALID,92.8525,VALID,0,VALID,23.5451,VALID,228,VALID,0.244141,
2011-04-30, 01:16:04,VALID,998.734,VALID,0,VALID,92.8525,VALID,0,VALID,23.5646,VALID,228,VALID,0.419141,
2011-04-30, 01:17:04,VALID,998.726,VALID,0,VALID,92.8601,VALID,0,VALID,23.5646,VALID,228,VALID,0.535156,
2011-04-30, 01:18:04,VALID,998.74,VALID,0,VALID,92.8372,VALID,0,VALID,23.5451,VALID,270,VALID,0.528125,
2011-04-30, 01:19:04,VALID,998.707,VALID,0,VALID,92.8296,VALID,0,VALID,23.5256,VALID,271,VALID,0.651953,
2011-04-30, 01:20:04,VALID,998.685,VALID,0,VALID,92.8372,VALID,0,VALID,23.4866,VALID,271,VALID,0.591016,
2011-04-30, 01:21:04,VALID,998.672,VALID,0,VALID,92.8143,VALID,0,VALID,23.4866,VALID,271,VALID,0.309375,
2011-04-30, 01:22:04,VALID,998.655,VALID,0,VALID,92.8296,VALID,0,VALID,23.4671,VALID,271,VALID,0.347266,
2011-04-30, 01:23:04,VALID,998.639,VALID,0,VALID,92.8448,VALID,0,VALID,23.4671,VALID,271,VALID,0.36875,
2011-04-30, 01:24:04,VALID,998.619,VALID,0,VALID,92.8525,VALID,0,VALID,23.4475,VALID,271,VALID,0.212891,
2011-04-30, 01:25:04,VALID,998.615,VALID,0,VALID,92.8906,VALID,0,VALID,23.4475,VALID,271,VALID,0,
2011-04-30, 01:26:04,VALID,998.579,VALID,0,VALID,92.8983,VALID,0,VALID,23.4475,VALID,271,VALID,0,
2011-04-30, 01:27:04,VALID,998.579,VALID,0,VALID,92.8983,VALID,0,VALID,23.428,VALID,271,VALID,0,
2011-04-30, 01:28:04,VALID,998.575,VALID,0,VALID,92.9364,VALID,0,VALID,23.428,VALID,271,VALID,0,
2011-04-30, 01:29:04,VALID,998.555,VALID,0,VALID,92.944,VALID,0,VALID,23.428,VALID,271,VALID,0.501953,
2011-04-30, 01:30:04,VALID,998.587,VALID,0,VALID,92.944,VALID,0,VALID,23.428,VALID,271,VALID,0.549219,
2011-04-30, 01:31:04,VALID,998.586,VALID,0,VALID,92.9745,VALID,0,VALID,23.428,VALID,271,VALID,0.489453,
2011-04-30, 01:32:04,VALID,998.584,VALID,0,VALID,92.9974,VALID,0,VALID,23.428,VALID,271,VALID,0.370703,
2011-04-30, 01:33:04,VALID,998.574,VALID,0,VALID,92.9974,VALID,0,VALID,23.428,VALID,271,VALID,0.134375,
2011-04-30, 01:34:04,VALID,998.585,VALID,0,VALID,93.0356,VALID,0,VALID,23.4085,VALID,271,VALID,0.180469,
2011-04-30, 01:35:04,VALID,998.578,VALID,0,VALID,93.0356,VALID,0,VALID,23.4085,VALID,271,VALID,0,
2011-04-30, 01:36:04,VALID,998.534,VALID,0,VALID,93.0508,VALID,0,VALID,23.4085,VALID,271,VALID,0.307813,
2011-04-30, 01:37:04,VALID,998.509,VALID,0,VALID,93.028,VALID,0,VALID,23.3695,VALID,271,VALID,0,
2011-04-30, 01:38:04,VALID,998.526,VALID,0,VALID,93.0508,VALID,0,VALID,23.35,VALID,271,VALID,0,
2011-04-30, 01:39:04,VALID,998.527,VALID,0,VALID,93.0585,VALID,0,VALID,23.35,VALID,271,VALID,0,
2011-04-30, 01:40:04,VALID,998.509,VALID,0,VALID,93.0814,VALID,0,VALID,23.311,VALID,271,VALID,0,
2011-04-30, 01:41:04,VALID,998.517,VALID,0,VALID,93.0661,VALID,0,VALID,23.311,VALID,271,VALID,0,
2011-04-30, 01:42:04,VALID,998.47,VALID,0,VALID,93.0661,VALID,0,VALID,23.2915,VALID,271,VALID,0,
2011-04-30, 01:43:04,VALID,998.457,VALID,0,VALID,93.089,VALID,0,VALID,23.2915,VALID,271,VALID,0,
2011-04-30, 01:44:04,VALID,998.437,VALID,0,VALID,93.089,VALID,0,VALID,23.2915,VALID,271,VALID,0,
2011-04-30, 01:45:04,VALID,998.395,VALID,0,VALID,93.1043,VALID,0,VALID,23.2915,VALID,271,VALID,0,
2011-04-30, 01:46:04,VALID,998.413,VALID,0,VALID,93.1271,VALID,0,VALID,23.2719,VALID,271,VALID,0,
2011-04-30, 01:47:04,VALID,998.406,VALID,0,VALID,93.1424,VALID,0,VALID,23.2719,VALID,271,VALID,0,
2011-04-30, 01:48:04,VALID,998.359,VALID,0,VALID,93.1653,VALID,0,VALID,23.2737,VALID,271,VALID,0,
2011-04-30, 01:49:04,VALID,998.383,VALID,0,VALID,93.1577,VALID,0.112286,VALID,23.2524,VALID,271,VALID,0,
2011-04-30, 01:50:04,VALID,998.346,VALID,0,VALID,93.1653,VALID,0,VALID,23.2719,VALID,271,VALID,0,
2011-04-30, 01:51:04,VALID,998.327,VALID,0,VALID,93.1729,VALID,0,VALID,23.2719,VALID,271,VALID,0,
2011-04-30, 01:52:04,VALID,998.327,VALID,0,VALID,93.2034,VALID,0,VALID,23.2702,VALID,271,VALID,0,
2011-04-30, 01:53:04,VALID,998.304,VALID,0,VALID,93.2187,VALID,0,VALID,23.2524,VALID,271,VALID,0,
2011-04-30, 01:54:04,VALID,998.29,VALID,0,VALID,93.2111,VALID,0.112286,VALID,23.2719,VALID,271,VALID,0,
2011-04-30, 01:55:04,VALID,998.275,VALID,0,VALID,93.2263,VALID,0,VALID,23.2524,VALID,271,VALID,0,
2011-04-30, 01:56:04,VALID,998.268,VALID,0,VALID,93.2721,VALID,0,VALID,23.2524,VALID,271,VALID,0,
2011-04-30, 01:57:04,VALID,998.256,VALID,0,VALID,93.2416,VALID,0,VALID,23.2524,VALID,271,VALID,0,
2011-04-30, 01:58:04,VALID,998.251,VALID,0,VALID,93.2797,VALID,0,VALID,23.2524,VALID,271,VALID,0,
2011-04-30, 01:59:04,VALID,998.212,VALID,0,VALID,93.2797,VALID,0,VALID,23.2329,VALID,271,VALID,0,
2011-04-30, 02:00:04,VALID,998.228,VALID,0,VALID,93.2797,VALID,0,VALID,23.2134,VALID,271,VALID,0,
2011-04-30, 02:01:04,VALID,998.192,VALID,0,VALID,93.2721,VALID,0,VALID,23.1744,VALID,271,VALID,0,
2011-04-30, 02:02:04,VALID,998.134,VALID,0,VALID,93.295,VALID,0,VALID,23.1354,VALID,271,VALID,0,
2011-04-30, 02:03:04,VALID,998.116,VALID,0,VALID,93.295,VALID,0,VALID,23.1354,VALID,271,VALID,0,
2011-04-30, 02:04:04,VALID,998.069,VALID,0,VALID,93.3103,VALID,0,VALID,23.1744,VALID,271,VALID,0,
2011-04-30, 02:05:04,VALID,998.052,VALID,0,VALID,93.3103,VALID,0.112286,VALID,23.1939,VALID,271,VALID,0,
2011-04-30, 02:06:04,VALID,998.029,VALID,0,VALID,93.3331,VALID,0,VALID,23.1939,VALID,271,VALID,0,
2011-04-30, 02:07:04,VALID,998.023,VALID,0,VALID,93.3408,VALID,0,VALID,23.1744,VALID,271,VALID,0,
2011-04-30, 02:08:04,VALID,998.062,VALID,0,VALID,93.3408,VALID,0,VALID,23.1549,VALID,271,VALID,0,
2011-04-30, 02:09:04,VALID,998.068,VALID,0,VALID,93.3331,VALID,0,VALID,23.1354,VALID,271,VALID,0,
2011-04-30, 02:10:04,VALID,998.064,VALID,0,VALID,93.3866,VALID,0,VALID,23.1744,VALID,271,VALID,0,
2011-04-30, 02:11:04,VALID,998.04,VALID,0,VALID,93.3637,VALID,0,VALID,23.2134,VALID,271,VALID,0,
2011-04-30, 02:12:04,VALID,998.048,VALID,0,VALID,93.3789,VALID,0.112286,VALID,23.1159,VALID,271,VALID,0,
2011-04-30, 02:13:04,VALID,998.043,VALID,0,VALID,93.3789,VALID,0,VALID,23.0769,VALID,342,VALID,0,
2011-04-30, 02:14:04,VALID,998.03,VALID,0,VALID,93.3866,VALID,0,VALID,23.0573,VALID,7,VALID,0,
2011-04-30, 02:15:04,VALID,998.005,VALID,0,VALID,93.3942,VALID,0,VALID,22.9988,VALID,38,VALID,0,
2011-04-30, 02:16:04,VALID,997.987,VALID,0,VALID,93.4018,VALID,0,VALID,22.9793,VALID,48,VALID,1.02969,
2011-04-30, 02:17:04,VALID,997.941,VALID,0,VALID,93.4094,VALID,0,VALID,22.9598,VALID,53,VALID,1.08398,
2011-04-30, 02:18:04,VALID,997.942,VALID,0,VALID,93.4171,VALID,0,VALID,22.9598,VALID,54,VALID,0.584766,
2011-04-30, 02:19:04,VALID,997.899,VALID,0,VALID,93.4018,VALID,0,VALID,22.9598,VALID,54,VALID,0,
2011-04-30, 02:20:04,VALID,997.919,VALID,0,VALID,93.4094,VALID,0,VALID,22.9403,VALID,54,VALID,0,
2011-04-30, 02:21:04,VALID,997.879,VALID,0,VALID,93.4247,VALID,0,VALID,22.9208,VALID,54,VALID,0,
2011-04-30, 02:22:04,VALID,997.866,VALID,0,VALID,93.4018,VALID,0,VALID,22.9013,VALID,54,VALID,0,
2011-04-30, 02:23:04,VALID,997.846,VALID,0,VALID,93.4247,VALID,0,VALID,22.8818,VALID,54,VALID,0,
2011-04-30, 02:24:04,VALID,997.82,VALID,0,VALID,93.4323,VALID,0,VALID,22.9013,VALID,54,VALID,0,
2011-04-30, 02:25:04,VALID,997.808,VALID,0,VALID,93.4323,VALID,0,VALID,22.8818,VALID,54,VALID,0,
2011-04-30, 02:26:04,VALID,997.792,VALID,0,VALID,93.4323,VALID,0,VALID,22.9013,VALID,54,VALID,0,
2011-04-30, 02:27:04,VALID,997.766,VALID,0,VALID,93.4323,VALID,0,VALID,22.9013,VALID,54,VALID,0,
2011-04-30, 02:28:04,VALID,997.735,VALID,0,VALID,93.4476,VALID,0,VALID,22.8818,VALID,54,VALID,0,
2011-04-30, 02:29:04,VALID,997.739,VALID,0,VALID,93.4552,VALID,0,VALID,22.9013,VALID,54,VALID,0,
2011-04-30, 02:30:04,VALID,997.731,VALID,0,VALID,93.44,VALID,0,VALID,22.9208,VALID,54,VALID,0,
2011-04-30, 02:31:04,VALID,997.736,VALID,0,VALID,93.4628,VALID,0,VALID,22.8995,VALID,54,VALID,0,
2011-04-30, 02:32:04,VALID,997.692,VALID,0,VALID,93.4705,VALID,0,VALID,22.9403,VALID,54,VALID,0,
2011-04-30, 02:33:04,VALID,997.719,VALID,0,VALID,93.4705,VALID,0,VALID,22.9581,VALID,54,VALID,0,
2011-04-30, 02:34:04,VALID,997.731,VALID,0,VALID,93.4857,VALID,0,VALID,22.9988,VALID,54,VALID,0,
2011-04-30, 02:35:04,VALID,997.722,VALID,0,VALID,93.4781,VALID,0,VALID,23.0183,VALID,54,VALID,0,
2011-04-30, 02:36:04,VALID,997.69,VALID,0,VALID,93.4781,VALID,0,VALID,23.0573,VALID,100,VALID,0.505859,
2011-04-30, 02:37:04,VALID,997.64,VALID,0,VALID,93.4705,VALID,0,VALID,23.1159,VALID,129,VALID,0.603125,
2011-04-30, 02:38:04,VALID,997.642,VALID,0,VALID,93.4934,VALID,0,VALID,23.1549,VALID,129,VALID,0.539453,
2011-04-30, 02:39:04,VALID,997.612,VALID,0,VALID,93.501,VALID,0,VALID,23.1744,VALID,129,VALID,0.513281,
2011-04-30, 02:40:04,VALID,997.59,VALID,0,VALID,93.501,VALID,0,VALID,23.1939,VALID,129,VALID,0.0195313,
2011-04-30, 02:41:04,VALID,997.55,VALID,0,VALID,93.5086,VALID,0,VALID,23.2134,VALID,129,VALID,0,
2011-04-30, 02:42:04,VALID,997.578,VALID,0,VALID,93.5086,VALID,0,VALID,23.2134,VALID,129,VALID,0,
2011-04-30, 02:43:04,VALID,997.521,VALID,0,VALID,93.5163,VALID,0,VALID,23.2524,VALID,129,VALID,0,
2011-04-30, 02:44:04,VALID,997.523,VALID,0,VALID,93.5239,VALID,0,VALID,23.2507,VALID,129,VALID,0,
2011-04-30, 02:45:04,VALID,997.552,VALID,0,VALID,93.5239,VALID,0,VALID,23.2719,VALID,129,VALID,0,
2011-04-30, 02:46:04,VALID,997.517,VALID,0,VALID,93.5163,VALID,0,VALID,23.2719,VALID,129,VALID,0,
2011-04-30, 02:47:04,VALID,997.515,VALID,0,VALID,93.5315,VALID,0,VALID,23.2915,VALID,129,VALID,0,
2011-04-30, 02:48:04,VALID,997.528,VALID,0,VALID,93.5315,VALID,0,VALID,23.311,VALID,129,VALID,0.808594,
2011-04-30, 02:49:04,VALID,997.508,VALID,0,VALID,93.562,VALID,0,VALID,23.2915,VALID,129,VALID,0.753516,
2011-04-30, 02:50:04,VALID,997.527,VALID,0,VALID,93.5315,VALID,0,VALID,23.2719,VALID,129,VALID,0.5,
2011-04-30, 02:51:04,VALID,997.499,VALID,0,VALID,93.5544,VALID,0,VALID,23.2719,VALID,129,VALID,0.475781,
2011-04-30, 02:52:04,VALID,997.491,VALID,0,VALID,93.5468,VALID,0,VALID,23.2524,VALID,129,VALID,0.585156,
2011-04-30, 02:53:04,VALID,997.474,VALID,0,VALID,93.5391,VALID,0,VALID,23.2329,VALID,129,VALID,0.55,
2011-04-30, 02:54:04,VALID,997.458,VALID,0,VALID,93.5391,VALID,0,VALID,23.2134,VALID,129,VALID,0.455469,
2011-04-30, 02:55:04,VALID,997.464,VALID,0,VALID,93.5391,VALID,0,VALID,23.1939,VALID,129,VALID,0.301172,
2011-04-30, 02:56:04,VALID,997.474,VALID,0,VALID,93.5544,VALID,0,VALID,23.1744,VALID,129,VALID,0,
2011-04-30, 02:57:04,VALID,997.449,VALID,0,VALID,93.562,VALID,0,VALID,23.1939,VALID,129,VALID,0,
2011-04-30, 02:58:04,VALID,997.459,VALID,0,VALID,93.5468,VALID,0,VALID,23.1744,VALID,129,VALID,0,
2011-04-30, 02:59:04,VALID,997.448,VALID,0,VALID,93.5544,VALID,0,VALID,23.1744,VALID,129,VALID,0,
2011-04-30, 03:00:04,VALID,997.437,VALID,0,VALID,93.562,VALID,0,VALID,23.1531,VALID,129,VALID,0,
2011-04-30, 03:01:04,VALID,997.427,VALID,0,VALID,93.5697,VALID,0,VALID,23.1336,VALID,129,VALID,0,
2011-04-30, 03:02:04,VALID,997.432,VALID,0,VALID,93.5544,VALID,0,VALID,23.1336,VALID,129,VALID,0,
2011-04-30, 03:03:04,VALID,997.415,VALID,0,VALID,93.5697,VALID,0,VALID,23.1354,VALID,129,VALID,0,
2011-04-30, 03:04:04,VALID,997.392,VALID,0,VALID,93.562,VALID,0,VALID,23.1549,VALID,129,VALID,0,
2011-04-30, 03:05:04,VALID,997.382,VALID,0,VALID,93.562,VALID,0,VALID,23.1744,VALID,129,VALID,0,
2011-04-30, 03:06:04,VALID,997.394,VALID,0,VALID,93.5773,VALID,0,VALID,23.1744,VALID,96,VALID,0,
2011-04-30, 03:07:04,VALID,997.413,VALID,0,VALID,93.562,VALID,0,VALID,23.1549,VALID,38,VALID,0,
2011-04-30, 03:08:05,VALID,997.414,VALID,0,VALID,93.5697,VALID,0,VALID,23.1141,VALID,38,VALID,0,
2011-04-30, 03:09:05,VALID,997.455,VALID,0,VALID,93.5697,VALID,0,VALID,23.1354,VALID,38,VALID,0,
2011-04-30, 03:10:05,VALID,997.447,VALID,0,VALID,93.5849,VALID,0,VALID,23.1549,VALID,38,VALID,0,
2011-04-30, 03:11:05,VALID,997.464,VALID,0,VALID,93.562,VALID,0,VALID,23.1549,VALID,18,VALID,0.0484375,
2011-04-30, 03:12:05,VALID,997.416,VALID,0,VALID,93.5544,VALID,0,VALID,23.1141,VALID,13,VALID,0.899219,
2011-04-30, 03:13:05,VALID,997.422,VALID,0,VALID,93.5697,VALID,0,VALID,23.1549,VALID,1,VALID,0.760938,
2011-04-30, 03:14:05,VALID,997.382,VALID,0,VALID,93.562,VALID,0,VALID,23.1744,VALID,1,VALID,0.546484,
2011-04-30, 03:15:05,VALID,997.355,VALID,0,VALID,93.562,VALID,0,VALID,23.1939,VALID,1,VALID,0.123438,
2011-04-30, 03:16:05,VALID,997.335,VALID,0,VALID,93.5544,VALID,0,VALID,23.1921,VALID,1,VALID,0,
2011-04-30, 03:17:05,VALID,997.317,VALID,0,VALID,93.562,VALID,0,VALID,23.1939,VALID,1,VALID,0,
2011-04-30, 03:18:05,VALID,997.303,VALID,0,VALID,93.562,VALID,0,VALID,23.2152,VALID,1,VALID,0,
2011-04-30, 03:19:05,VALID,997.248,VALID,0,VALID,93.562,VALID,0,VALID,23.1939,VALID,1,VALID,0,
2011-04-30, 03:20:05,VALID,997.224,VALID,0,VALID,93.5697,VALID,0,VALID,23.1744,VALID,1,VALID,0,
2011-04-30, 03:21:05,VALID,997.2,VALID,0,VALID,93.5468,VALID,0,VALID,23.1336,VALID,1,VALID,0,
2011-04-30, 03:22:05,VALID,997.206,VALID,0,VALID,93.5773,VALID,0,VALID,23.1549,VALID,1,VALID,0,
2011-04-30, 03:23:05,VALID,997.166,VALID,0,VALID,93.5544,VALID,0,VALID,23.1336,VALID,1,VALID,0,
2011-04-30, 03:24:05,VALID,997.175,VALID,0,VALID,93.5391,VALID,0,VALID,23.1549,VALID,1,VALID,0,
2011-04-30, 03:25:05,VALID,997.181,VALID,0,VALID,93.5391,VALID,0,VALID,23.1531,VALID,1,VALID,0,
2011-04-30, 03:26:05,VALID,997.201,VALID,0,VALID,93.5391,VALID,0,VALID,23.1939,VALID,1,VALID,0,
2011-04-30, 03:27:05,VALID,997.216,VALID,0,VALID,93.5315,VALID,0,VALID,23.1726,VALID,1,VALID,0.278516,
2011-04-30, 03:28:05,VALID,997.235,VALID,0,VALID,93.5468,VALID,0,VALID,23.2134,VALID,1,VALID,0,
2011-04-30, 03:29:05,VALID,997.24,VALID,0,VALID,93.5468,VALID,0,VALID,23.2134,VALID,1,VALID,0,
2011-04-30, 03:30:05,VALID,997.237,VALID,0,VALID,93.5544,VALID,0,VALID,23.2134,VALID,1,VALID,0,
2011-04-30, 03:31:05,VALID,997.264,VALID,0,VALID,93.5391,VALID,0,VALID,23.2134,VALID,1,VALID,0,
2011-04-30, 03:32:05,VALID,997.296,VALID,0,VALID,93.5315,VALID,0,VALID,23.1939,VALID,1,VALID,0,
2011-04-30, 03:33:05,VALID,997.322,VALID,0,VALID,93.5391,VALID,0,VALID,23.1939,VALID,1,VALID,0,
2011-04-30, 03:34:05,VALID,997.351,VALID,0,VALID,93.5163,VALID,0,VALID,23.1939,VALID,1,VALID,0,
2011-04-30, 03:35:05,VALID,997.413,VALID,0,VALID,93.5239,VALID,0,VALID,23.1939,VALID,1,VALID,0,
2011-04-30, 03:36:05,VALID,997.399,VALID,0,VALID,93.5239,VALID,0,VALID,23.1939,VALID,1,VALID,0,
2011-04-30, 03:37:05,VALID,997.427,VALID,0,VALID,93.5391,VALID,0,VALID,23.1939,VALID,19,VALID,0,
2011-04-30, 03:38:05,VALID,997.423,VALID,0,VALID,93.5391,VALID,0,VALID,23.1549,VALID,19,VALID,0,
2011-04-30, 03:39:05,VALID,997.456,VALID,0,VALID,93.5315,VALID,0,VALID,23.1549,VALID,19,VALID,0,
2011-04-30, 03:40:05,VALID,997.46,VALID,0,VALID,93.5391,VALID,0,VALID,23.1354,VALID,19,VALID,0,
2011-04-30, 03:41:05,VALID,997.449,VALID,0,VALID,93.5239,VALID,0,VALID,23.1159,VALID,19,VALID,0,
2011-04-30, 03:42:05,VALID,997.437,VALID,0,VALID,93.5239,VALID,0,VALID,23.0946,VALID,19,VALID,0,
2011-04-30, 03:43:05,VALID,997.429,VALID,0,VALID,93.5163,VALID,0,VALID,23.1159,VALID,19,VALID,0,
2011-04-30, 03:44:05,VALID,997.45,VALID,0,VALID,93.5086,VALID,0,VALID,23.0751,VALID,19,VALID,0,
2011-04-30, 03:45:05,VALID,997.426,VALID,0,VALID,93.5086,VALID,0,VALID,23.0964,VALID,19,VALID,0,
2011-04-30, 03:46:05,VALID,997.409,VALID,0,VALID,93.4934,VALID,0,VALID,23.1354,VALID,19,VALID,0,
2011-04-30, 03:47:05,VALID,997.395,VALID,0,VALID,93.5086,VALID,0,VALID,23.1159,VALID,19,VALID,0,
2011-04-30, 03:48:05,VALID,997.389,VALID,0,VALID,93.5163,VALID,0,VALID,23.1159,VALID,19,VALID,0,
2011-04-30, 03:49:05,VALID,997.368,VALID,0,VALID,93.501,VALID,0,VALID,23.0964,VALID,19,VALID,0,
2011-04-30, 03:50:05,VALID,997.374,VALID,0,VALID,93.501,VALID,0,VALID,23.1159,VALID,19,VALID,0,
2011-04-30, 03:51:05,VALID,997.376,VALID,0,VALID,93.501,VALID,0,VALID,23.1159,VALID,19,VALID,0,
2011-04-30, 03:52:05,VALID,997.392,VALID,0,VALID,93.5086,VALID,0,VALID,23.1159,VALID,19,VALID,0,
2011-04-30, 03:53:05,VALID,997.446,VALID,0,VALID,93.5086,VALID,0,VALID,23.1159,VALID,19,VALID,0,
2011-04-30, 03:54:05,VALID,997.468,VALID,0,VALID,93.5086,VALID,0,VALID,23.0769,VALID,19,VALID,0,
2011-04-30, 03:55:05,VALID,997.439,VALID,0,VALID,93.5086,VALID,0,VALID,23.0573,VALID,38,VALID,0.928516,